User: anonymous   Login
Location: Mohawk View
(42.7837°N, 73.7885°W)
Time: 07:46:41
(UTC+00:00)
Language:

Cosmos 1656 Rocket - Orbit

View from above orbital plane
View from above orbital plane
View from above satellite
View from above satellite

Ground track
Ground track

The orbit data is extracted from the following two-line orbital elements,

1 15772U 85042D   21268.12965314 -.00000099  00000-0 -23499-4 0  9992
2 15772  71.1064 281.9122 0033837 138.9098 286.9125 14.21300942883233
Epoch (UTC): 25 September 2021 03:06:42
Eccentricity: 0.0033837
inclination: 71.1064°
perigee height: 796 km
apogee height: 845 km
right ascension of ascending node: 281.9122°
argument of perigee: 138.9098°
revolutions per day: 14.21300942
mean anomaly at epoch: 286.9125°
orbit number at epoch: 88323

The dashed part of the orbit path shows where the satellite is in the earth's shadow,  

DLR